Regional Weather Roundup
Issued by NWS

Home | Current Version | Previous Version | Graphics & Text | Print | Product List | Glossary On
Versions: 1 2 3 4 5 6 7 8 9 10 11 12 13 14 15 16 17 18 19 20 21 22 23 24 25 26 27 28 29 30 31 32 33 34 35 36 37 38 39 40 41 42 43 44 45 46 47 48 49 50
000
ASUS43 KIND 302359
RWRIN

WEATHER ROUNDUP FOR INDIANA
NATIONAL WEATHER SERVICE INDIANAPOLIS IN
800 PM EDT SUN AUG 30 2015

NOTE: "FAIR" INDICATES FEW OR NO CLOUDS BELOW 12,000 FEET WITH NO
SIGNIFICANT WEATHER AND/OR OBSTRUCTIONS TO VISIBILITY.

* - STATION DOES NOT REPORT WEATHER SUCH AS PRECIPITATION OR FOG.

+ - STATION NOT QUALITY CONTROLLED BY THE NATIONAL WEATHER SERVICE.
    USE DATA WITH CAUTION...ESPECIALLY DEWPOINT AND RELATIVE
    HUMIDITY OBSERVATIONS.

INZ001>003-010>013-019-020-310100-
NORTHWEST INDIANA

CITY           SKY/WX    TMP DP  RH WIND       PRES   REMARKS
GARY /AIRPORT/ PTCLDY    72  66  83 VRB5      30.02F
KNOX *+        CLEAR     73  68  83 N3        30.01S
MONTICELLO +   MOCLDY    75  73  93 N5        30.01S
6HR MIN TEMP:  75; 6HR MAX TEMP:  83;

RENSSELAER +   CLEAR     77  72  83 CALM      30.02S

$$

LMZ046-743>745-310100-
SOUTHERN LAKE MICHIGAN

STATION/POSITION TIME  TEMP    WIND        PRES    WAVE
                       AIR SEA DIR/SP/G            HT
                 (UTC) (F)     (DEG/KT/KT) (MB)    (FT)
BURNS HARBOR     2300   71      70/  8/ 10 1017.3S
MICHIGAN CITY    2300   69      40/  7/  7   N/A
5NW MICH CITY    2300   69 71   80/  6/  8   N/A     1

$$

INZ004-005-014>016-021>024-310100-
NORTH CENTRAL INDIANA

CITY           SKY/WX    TMP DP  RH WIND       PRES   REMARKS
GOSHEN         CLEAR     74  69  85 W3        30.02F
6HR MIN TEMP:  74; 6HR MAX TEMP:  81;

SOUTH BEND     CLEAR     72  66  81 N3        30.03F
6HR MIN TEMP:  72; 6HR MAX TEMP:  76;

WARSAW +       CLEAR     73  68  83 CALM      30.03S

$$

INZ006>009-017-018-025>027-310100-
NORTHEAST INDIANA

CITY           SKY/WX    TMP DP  RH WIND       PRES   REMARKS
ANGOLA *+      CLEAR     75  70  83 CALM      30.03S
FORT WAYNE     PTCLDY    78  69  73 NW5       30.03R
6HR MIN TEMP:  78; 6HR MAX TEMP:  85;


$$

INZ028-029-035-036-043>045-051>053-310100-
WEST CENTRAL INDIANA

CITY           SKY/WX    TMP DP  RH WIND       PRES   REMARKS
CRAWFORDSVL +  CLEAR     73  67  79 CALM      30.03S
6HR MIN TEMP:  73; 6HR MAX TEMP:  82;

GREENCASTLE +  PTCLDY    77  64  65 CALM      30.04S
LAFAYETTE      PTCLDY    80  68  66 CALM      30.01R
6HR MIN TEMP:  80; 6HR MAX TEMP:  85;

TERRE HAUTE    CLEAR     81  67  62 S5        30.01F
6HR MIN TEMP:  81; 6HR MAX TEMP:  87;


$$

INZ030>032-037>040-046>048-054>057-064-065-310100-
CENTRAL INDIANA

CITY           SKY/WX    TMP DP  RH WIND       PRES   REMARKS
COLUMBUS       MOCLDY    75  68  78 CALM      30.04S
FRANKFORT +    CLEAR     76  69  79 CALM      30.05S
6HR MIN TEMP:  76; 6HR MAX TEMP:  85;

GREENWOOD *+   PTCLDY    79  63  57 SW7       30.05R
INDIANAPOLIS   MOCLDY    79  63  57 SW8       30.02S
6HR MIN TEMP:  79; 6HR MAX TEMP:  87;

-EAGLE CREEK   PTCLDY    80  64  58 SW3       30.02S
6HR MIN TEMP:  80; 6HR MAX TEMP:  86;

KOKOMO *+      PTCLDY    81  66  61 W6        30.03S
6HR MIN TEMP:  81; 6HR MAX TEMP:  86;

MT COMFORT *+  PTCLDY    79  63  57 SW3       30.04S
SHELBYVILLE    PTCLDY    79  67  66 SW7       30.03S
6HR MIN TEMP:  79; 6HR MAX TEMP:  88;


$$

INZ033-034-041-042-049-050-058-059-310100-
EAST CENTRAL INDIANA

CITY           SKY/WX    TMP DP  RH WIND       PRES   REMARKS
MUNCIE         PTCLDY    77  66  68 W6        30.03S
6HR MIN TEMP:  77; 6HR MAX TEMP:  84;


$$

INZ060-061-067>069-081>083-085>088-310100-
SOUTHWEST INDIANA

CITY           SKY/WX    TMP DP  RH WIND       PRES   REMARKS
EVANSVILLE     MOCLDY    81  69  67 S6        30.03S
6HR MIN TEMP:  81; 6HR MAX TEMP:  86;

HUNTINGBURG *+ PTCLDY    81  68  65 S5        30.04S
6HR MIN TEMP:  81; 6HR MAX TEMP:  88;


$$

INZ062-063-066-070>080-084-089>092-310100-
SOUTH CENTRAL AND SOUTHEAST INDIANA

CITY           SKY/WX    TMP DP  RH WIND       PRES   REMARKS
BLOOMINGTON    MOCLDY    75  69  81 W3        30.05S
6HR MIN TEMP:  75; 6HR MAX TEMP:  86;

MADISON *+     PTCLDY    77  68  73 CALM      30.08R
SEYMOUR +      PTCLDY    79  70  73 CALM      30.04R

$$




USA.gov is the U.S. government's official web portal to all federal, state and local government web resources and services.